Regional Weather Roundup
Issued by NWS

Home | Current Version | Previous Version | Text Only | Print | Product List | Glossary Off
Versions: 1 2 3 4 5 6 7 8 9 10 11 12 13 14 15 16 17 18 19 20 21 22 23 24 25 26 27 28 29 30 31 32 33 34 35 36 37 38 39 40 41 42 43 44 45 46 47 48 49 50

000
ASUS43 KLMK 081502
RWRKY
KENTUCKY REGIONAL WEATHER ROUNDUP
NATIONAL WEATHER SERVICE LOUISVILLE KY
1000 AM EST THU DEC 08 2016

NOTE "FAIR" INDICATES FEW OR NO CLOUDS BELOW 12,000 FEET
WITH NO SIGNIFICANT WEATHER AND/OR OBSTRUCTIONS TO VISIBILITY.

KYZ001>023-026-027-061>063-070>075-081600-
WESTERN AND SOUTH CENTRAL KENTUCKY

CITY           SKY/WX    TMP DP  RH WIND       PRES   REMARKS
PADUCAH        MOSUNNY   28  12  51 W13       30.47R WCI  17
HENDERSON      SUNNY     28  16  59 W14       30.45R WCI  17
OWENSBORO      MOSUNNY   27  16  63 NW12      30.44R WCI  17
HOPKINSVILLE   SUNNY     30  17  57 NW10      30.43R WCI  21
BOWLING GREEN  SUNNY     32  19  58 NW9G18    30.41R WCI  24
GLASGOW        NOT AVBL
$$

KYZ024-025-028>034-038-045-046-053-081600-
NORTH CENTRAL KENTUCKY

CITY           SKY/WX    TMP DP  RH WIND       PRES   REMARKS
LOUISVILLE/SDF PTSUNNY   30  16  56 NW13      30.37R WCI  20
LOUISVILLE/LOU MOSUNNY   30  17  58 NW12      30.37R WCI  20
FORT KNOX      MOSUNNY   27  14  58 W18G25    30.35R WCI  13
$$

KYZ035>037-039>044-047>052-055>060-089>105-081600-
NORTHEAST KENTUCKY

CITY           SKY/WX    TMP DP  RH WIND       PRES   REMARKS
LEXINGTON      MOSUNNY   30  17  58 W20       30.31R WCI  17
COVINGTON      MOSUNNY   26  13  57 W17G30    30.28R WCI  13
FRANKFORT      MOSUNNY   29  16  58 W10G16    30.32R WCI  20
$$

KYZ054-064>069-076>088-106>120-081600-
SOUTHEAST KENTUCKY

CITY           SKY/WX    TMP DP  RH WIND       PRES   REMARKS
JACKSON        MOSUNNY   32  20  61 W6        30.25R WCI  26
LONDON         MOSUNNY   32  20  61 W13       30.29R WCI  22
SOMERSET       MOSUNNY   32  23  69 W9        30.35R WCI  24
MIDDLESBORO    CLOUDY    35  21  56 W6        30.29R WCI  30
MONTICELLO     CLOUDY    33  23  66 W8G17     30.36R WCI  26
$$




USA.gov is the U.S. government's official web portal to all federal, state and local government web resources and services.